Location: Dehesa de la Cepeda
(40.6574°N, 4.3013°W)
Time: 21:21:45
(UTC+00:00)

Vanguard 2 Rocket - Pass Details

Date: 11 August 2021
Orbit: 556 x 3324 km, 32.9° (Epoch: 19 September)

Event Time Altitude Azimuth Distance (km) Brightness Sun altitude
Rises 02:23:48 0° 216° (SW) 5,953 - -27.4°
Reaches altitude 10° 02:29:27 10° 204° (SSW) 4,394 - -26.8°
Maximum altitude 02:37:04 21° 161° (SSE) 2,769 - -26.0°
Exits shadow 02:37:11 21° 160° (SSE) 2,758 9.0 -26.0°
Drops below altitude 10° 02:42:25 10° 114° (ESE) 2,944 9.6 -25.4°
Sets 02:45:16 0° 98° (E) 3,577 10.4 -25.0°
